Location: Zagreb
(45.8000°N, 16.0000°E)
Time: 17:32:52
(UTC+01:00)

Tiros 1 despin weight - Pass Details

Date: 03 February 2020
Orbit: 594 x 642 km, 48.2° (Epoch: 25 February)

Event Time Altitude Azimuth Distance (km) Brightness Sun altitude
Rises 09:44:47 0° 264° (W) 2,841 ? 19.5°
Reaches altitude 10° 09:47:05 10° 266° (W) 1,945 ? 19.7°
Maximum altitude 09:51:31 69° 350° (N) 651 ? 20.2°
Drops below altitude 10° 09:56:03 10° 75° (ENE) 1,976 ? 20.6°
Sets 09:58:24 0° 78° (ENE) 2,890 ? 20.9°
